This demonstration page uses our WeatherBlox Daily Observations layout. Learn more.

Left ArrowRight Arrow

Hourly Observations for June 2, 2017

Temp ( °F °C ) Dew Point ( °F °C ) Humidity (%) Winds ( mph kmh ) Pressure ( in mb ) Visibility ( mi km ) Precip ( " mm )
12:53 am 00:53 Clear 70 21.1 68 20 93 93 Calm 30.04 1017 10 16 0.00 0.00
1:53 am 01:53 Clear 69 20.6 68 20 96 96 Calm 30.03 1017 10 16 0.00 0.00
2:53 am 02:53 Clear 68 20 68 20 100 100 Calm 30.03 1017 10 16 0.00 0.00
3:53 am 03:53 Clear 67 19.4 67 19.4 100 100 Calm 30.04 1017 10 16 0.00 0.00
4:53 am 04:53 Clear 68 20 67 19.4 96 96 Calm 30.04 1017 10 16 0.00 0.00
5:53 am 05:53 Clear 68 20 67 19.4 96 96 Calm 30.06 1018 10 16 0.00 0.00
6:53 am 06:53 Sunny 67 19.4 67 19.4 100 100 Calm 30.07 1018 10 16 0.00 0.00
7:53 am 07:53 Sunny 70 21.1 68 20 93 93 Calm 30.09 1019 10 16 0.00 0.00
8:53 am 08:53 Sunny 72 22.2 68 20 87 87 Calm 30.09 1019 10 16 0.00 0.00
9:53 am 09:53 Sunny 77 25 67 19.4 71 71 N 3 6 30.09 1019 10 16 0.00 0.00
10:53 am 10:53 Sunny 78 25.6 66 18.9 67 67 Calm 30.09 1019 10 16 0.00 0.00
11:53 am 11:53 Sunny 80 26.7 65 18.3 60 60 ENE 3 6 30.07 1018 10 16 0.00 0.00
12:53 pm 12:53 Partly Cloudy 83 28.3 65 18.3 55 55 N 3 6 30.06 1018 10 16 0.00 0.00
1:53 pm 13:53 Sunny 84 28.9 61 16.1 46 46 N 6 9 30.05 1018 10 16 0.00 0.00
2:53 pm 14:53 Sunny 85 29.4 61 16.1 45 45 N 5 7 30.02 1017 10 16 0.00 0.00
3:53 pm 15:53 Sunny 87 30.6 60 15.6 40 40 N 7 11 30.00 1016 10 16 0.00 0.00
4:53 pm 16:53 Sunny 87 30.6 58 14.4 37 37 WNW 7 11 29.99 1016 10 16 0.00 0.00
5:53 pm 17:53 Sunny 87 30.6 60 15.6 40 40 VRB 5 7 29.98 1015 10 16 0.00 0.00
6:53 pm 18:53 Sunny 86 30 61 16.1 43 43 Calm 29.98 1015 10 16 0.00 0.00
8:53 pm 20:53 Clear 79 26.1 67 19.4 67 67 Calm 29.98 1015 10 16 0.00 0.00
9:53 pm 21:53 Clear 78 25.6 65 18.3 64 64 Calm 30.00 1016 10 16 0.00 0.00
10:53 pm 22:53 Clear 73 22.8 68 20 84 84 Calm 30.03 1017 10 16 0.00 0.00
11:53 pm 23:53 Clear 71 21.7 68 20 90 90 Calm 30.03 1017 10 16 0.00 0.00

Powered by AerisWeather